SCP
2 2 2 2 1 1 1 1 1 1 1 1 0 0 0 0 0 0 0 0 0 0 0 1 1 1 1 1 1 1 1 1 1 1 1 1 1 1 1 1 1 1 1
2 2 2 1 1 1 1 1 1 1 1 1 0 0 0 0 0 0 0 0 0 0 0 1 1 1 1 1 1 1 1 1 1 1 1 1 1 1 1 1 1 1 1
2 2 1 1 1 1 1 1 1 1 1 0 0 0 0 0 0 0 0 0 0 0 0 0 1 1 1 1 1 1 1 1 1 1 1 1 1 1 1 1 1 1 1
2 1 1 1 1 1 1 1 1 1 1 0 0 0 0 0 0 0 0 0 0 0 0 0 1 1 1 1 1 1 1 1 2 2 2 1 1 1 1 1 1 1 1
1 1 1 1 1 1 1 1 2 1 1 1 0 0 0 0 0 0 0 0 0 0 0 0 0 1 1 1 1 1 1 1 2 2 2 2 1 1 1 1 1 1 1
1 1 1 1 1 1 1 2 2 1 1 1 1 1 0 0 0 0 0 0 0 0 0 0 0 0 1 1 1 1 1 1 1 2 2 2 2 1 1 1 1 1 1
1 1 1 1 0 1 1 2 2 1 1 1 1 1 0 0 0 0 0 0 0 0 0 0 0 0 0 1 1 1 0 0 1 1 1 1 1 1 1 1 1 1 1
0 1 1 1 0 1 1 2 2 2 1 1 1 1 0 0 0 0 0 0 0 0 0 0 0 0 0 0 0 0 0 0 0 1 1 1 1 1 1 1 1 1 1
0 0 0 0 0 1 1 2 2 1 1 0 0 0 0 0 0 0 0 0 0 0 0 0 0 0 0 0 0 0 0 0 0 0 1 1 1 1 1 1 1 1 1
0 0 0 0 0 1 1 2 2 1 1 0 0 0 0 0 0 0 0 0 0 0 0 0 0 0 0 0 0 0 0 0 0 0 1 1 1 1 1 1 1 1 1
0 0 0 0 0 0 1 2 1 1 0 0 0 0 0 0 0 0 0 0 0 0 0 0 0 0 0 0 0 0 0 0 0 0 1 1 1 1 1 1 1 1 1
0 0 0 0 0 0 1 1 1 0 0 0 0 0 0 0 0 0 0 0 0 0 0 0 0 0 0 0 0 0 0 0 0 0 0 0 1 1 1 1 1 1 1
0 0 0 0 0 0 1 1 0 0 0 0 0 0 0 0 0 0 0 0 0 0 0 0 0 0 0 0 0 0 0 0 0 0 0 0 0 0 1 1 1 1 1
0 0 0 0 0 0 0 0 0 0 0 0 0 0 0 0 0 0 0 0 0 0 0 0 0 0 0 0 0 0 0 0 0 0 0 0 0 0 0 0 0 0 0
0 0 0 0 0 0 0 0 0 0 0 0 0 0 0 0 0 0 0 0 0 0 0 0 0 0 0 0 0 0 0 0 0 0 0 0 0 0 0 0 0 0 0
0 0 0 0 0 0 0 0 0 0 0 0 0 0 0 0 0 0 0 0 0 0 0 0 0 0 0 0 0 0 0 0 0 0 0 0 0 0 0 0 0 0 0
0 0 0 0 0 0 0 0 0 0 0 0 0 0 0 0 0 0 0 0 0 0 0 0 0 0 0 0 0 0 0 0 0 0 0 0 0 0 0 0 0 0 0
0 0 0 0 0 0 0 0 0 0 0 0 0 0 0 0 0 0 0 0 0 0 0 0 0 0 0 0 0 0 0 0 0 0 0 0 0 0 0 0 0 0 0
0 0 0 0 0 0 0 0 0 0 0 0 0 0 0 0 0 0 0 0 0 0 0 0 0 0 0 0 0 0 0 0 0 0 0 0 0 0 0 0 0 0 0
0 0 0 0 0 0 0 0 0 0 0 0 0 0 0 0 0 0 0 0 0 0 0 0 0 0 0 0 0 0 0 0 0 0 0 0 0 0 0 0 0 0 0
0 0 0 0 0 0 0 0 0 0 0 0 0 0 0 0 0 0 0 0 0 0 0 0 0 0 0 0 0 0 0 0 0 0 0 0 0 0 0 0 0 0 0
0 0 0 0 0 0 0 0 0 0 0 0 0 0 0 0 0 0 0 0 0 0 0 0 0 0 0 0 0 0 0 0 0 0 0 0 0 0 0 0 0 0 0
0 0 0 0 0 0 0 0 0 0 0 0 0 0 0 0 0 0 0 0 0 0 0 0 0 0 0 0 0 0 0 0 0 0 0 0 0 0 0 0 0 0 0
0 0 0 0 0 0 0 0 0 0 0 0 0 0 0 0 0 0 0 0 0 0 0 0 0 0 0 0 0 0 0 0 0 0 0 0 0 0 0 0 0 0 0
0 0 0 0 0 0 0 0 0 0 0 0 0 0 0 0 0 0 0 0 0 0 0 0 0 0 0 0 0 0 0 0 0 0 0 0 0 0 0 0 0 0 0
0 0 0 0 0 0 0 0 0 0 0 0 0 0 0 0 0 0 0 0 0 0 0 0 0 0 0 0 0 0 0 0 0 0 0 0 0 0 0 0 0 0 0
Wind_Speed
3 3 2 2 2 2 2 2 1 2 2 2 1 2 1 1 1 1 0 1 1 1 1 1 1 1 1 1 1 1 2 1 2 2 2 2 2 3 3 3 2 2 2
3 3 3 2 2 2 2 2 2 2 2 1 1 1 2 1 1 1 0 0 1 1 1 1 2 1 2 2 2 2 2 2 2 2 2 2 2 3 3 3 3 3 3
4 3 3 2 2 2 2 1 1 1 1 1 1 1 1 1 1 1 1 0 0 1 1 2 2 2 2 3 3 3 3 2 2 2 3 3 3 3 3 3 3 3 3
5 4 3 3 2 2 2 2 1 1 1 1 1 1 1 1 1 1 1 1 0 0 1 2 2 2 3 3 4 4 3 3 3 3 3 3 4 4 4 4 3 3 4
4 4 3 3 3 2 2 2 1 1 2 1 1 1 1 1 1 1 1 1 1 0 0 2 3 3 3 4 4 4 4 4 3 3 3 3 4 4 4 4 4 4 5
3 3 3 3 3 2 2 2 2 1 2 1 1 1 1 1 1 1 0 1 1 1 1 1 1 2 4 4 4 4 4 4 4 4 4 4 4 5 5 5 5 5 6
3 3 3 2 2 3 3 3 2 2 1 1 2 2 2 2 1 1 0 1 1 1 1 1 1 1 2 4 4 5 5 5 5 5 4 4 5 5 5 5 6 6 7
3 3 3 3 2 2 3 3 2 2 1 2 2 2 1 2 2 1 1 1 1 1 1 1 1 1 1 1 3 4 4 5 5 5 5 5 6 6 6 6 6 7 7
2 3 4 3 3 3 3 3 3 3 2 1 2 3 3 2 1 1 1 1 1 0 1 1 1 1 1 1 1 3 4 5 6 6 6 6 6 6 6 7 7 8 7
2 2 2 3 3 3 3 3 3 3 3 3 1 1 1 3 2 1 2 1 1 1 1 1 1 1 1 1 2 3 4 4 5 6 6 6 7 7 7 7 7 8 8
1 2 2 2 3 2 3 3 3 4 3 3 2 2 2 1 1 2 2 2 2 1 1 1 1 1 1 1 1 3 4 5 5 6 6 7 7 7 7 7 7 8 7
0 0 1 2 2 2 3 3 3 4 3 3 2 2 3 2 2 2 2 2 2 2 1 1 1 1 1 1 2 4 4 5 6 6 6 7 7 7 7 8 8 8 8
0 1 1 1 1 2 2 3 3 3 4 4 3 3 3 2 2 2 2 2 1 1 1 1 1 1 1 1 2 4 4 5 6 6 7 7 7 8 7 7 8 8 8
1 0 1 1 0 1 2 2 2 3 2 3 3 3 2 2 2 3 3 2 1 1 1 2 1 1 1 1 2 4 3 6 6 7 7 7 8 8 8 8 8 8 9
0 1 1 1 0 1 1 2 2 2 3 3 3 3 2 2 2 2 2 3 3 2 3 2 1 1 1 1 3 2 2 5 6 6 7 7 7 7 7 8 8 8 8
0 1 1 1 1 1 1 1 1 1 2 2 2 2 2 2 2 2 2 2 2 3 3 2 2 1 1 1 3 2 2 5 6 6 6 6 6 6 7 7 8 8 8
0 1 1 1 1 1 1 1 1 2 2 2 2 2 3 3 2 2 2 2 2 2 3 2 1 1 1 1 2 2 2 2 3 6 6 6 6 6 7 7 7 8 8
1 1 1 1 1 1 1 2 2 2 2 3 2 2 2 2 3 2 3 3 3 2 3 3 2 1 2 2 2 2 2 2 2 6 6 6 6 6 7 7 7 8 8
1 1 1 1 2 2 2 2 2 2 2 3 3 3 3 3 3 3 3 3 2 2 2 2 2 1 1 1 2 2 2 2 3 4 5 5 6 6 7 7 7 7 8
1 1 1 2 2 2 2 2 2 2 2 3 3 4 4 4 4 4 3 3 3 2 2 2 2 2 2 2 1 2 2 2 3 2 3 4 5 6 7 7 8 8 8
1 1 1 1 2 2 2 3 3 3 3 3 3 3 4 5 5 4 4 4 4 3 2 2 2 2 2 2 2 2 2 3 3 2 2 2 3 2 4 6 7 8 8
1 1 2 2 2 2 3 3 3 3 3 3 4 3 3 4 5 6 6 6 6 5 4 3 3 3 4 3 2 2 1 2 3 1 1 3 2 3 3 3 7 9 8
1 1 2 2 2 3 3 3 3 3 3 3 4 3 3 3 4 4 5 5 6 7 7 5 5 5 4 4 3 2 3 3 4 2 1 4 2 3 3 4 9 9 8
1 2 2 2 2 3 4 4 3 2 2 3 4 4 4 4 4 4 4 4 4 4 5 5 5 6 5 4 5 4 3 3 3 2 2 3 2 3 3 4 8 8 8
2 2 2 3 3 4 4 4 3 2 2 3 4 4 5 5 7 6 4 4 4 4 4 6 6 6 7 7 5 2 2 2 3 3 2 2 2 3 3 3 4 7 7
3 2 2 3 3 4 4 4 4 2 2 3 3 3 6 6 7 7 5 5 5 5 2 2 3 4 4 5 6 4 4 3 3 3 3 2 2 1 3 2 2 2 3
Wind_Direction
149 144 143 141 138 132 132 129 137 134 125 121 133 146 156 163 169 184 249 261 261 266 232 245 241 251 280 295 300 322 324 326 325 313 312 304 291 277 274 277 284 298 298
155 149 149 150 150 146 142 147 152 150 147 145 144 149 154 155 165 163 188 278 310 312 297 284 285 278 284 290 302 313 319 309 309 304 307 309 310 301 286 285 285 288 293
157 154 156 160 163 148 132 127 120 132 131 138 146 151 152 155 159 157 153 142 359 346 329 309 313 314 314 302 300 303 312 317 317 305 304 304 302 300 294 284 282 286 286
159 156 159 170 164 146 138 141 141 137 139 146 163 181 162 159 161 166 142 122 115 15 344 350 341 325 316 309 303 303 311 326 324 313 309 306 305 299 293 285 285 289 291
164 159 165 167 159 148 149 158 145 153 159 163 176 141 106 125 158 135 126 115 106 78 8 359 359 344 335 324 317 319 322 326 330 326 312 302 306 299 294 287 288 292 291
168 157 155 155 157 152 155 156 151 153 149 152 134 79 56 42 85 99 140 92 69 51 35 12 10 353 356 349 345 343 337 336 336 334 331 318 314 306 296 287 290 290 291
167 153 149 152 154 166 170 162 151 146 123 118 93 50 23 33 61 59 61 90 58 44 49 30 30 16 354 358 357 351 345 342 337 336 334 324 321 315 301 293 291 289 289
168 157 154 163 160 156 160 161 147 141 134 117 119 113 42 355 346 12 25 88 56 57 50 37 35 15 359 4 350 354 349 343 336 332 329 320 317 310 304 296 297 294 292
165 156 161 164 170 165 169 174 164 150 160 156 130 134 142 203 286 324 346 9 9 57 13 17 27 0 3 13 350 349 350 337 326 323 322 322 318 308 304 302 301 301 301
145 148 159 169 176 179 175 179 171 159 154 160 142 93 127 149 153 288 308 325 351 14 345 358 2 356 6 24 358 355 355 347 328 327 328 325 321 313 304 308 309 305 307
144 152 161 172 185 189 190 180 163 165 164 163 162 151 108 81 113 156 243 296 330 322 328 328 338 353 359 23 7 1 360 354 349 337 332 328 327 323 316 312 309 307 304
32 173 177 186 193 195 198 190 180 176 177 169 168 167 162 158 169 164 199 227 269 291 319 325 344 350 3 29 18 11 3 353 345 338 337 337 339 337 325 317 313 311 307
3 270 179 202 205 206 201 187 177 184 181 175 182 188 186 179 168 165 171 201 252 298 315 321 314 347 18 34 14 12 1 355 345 340 338 339 341 341 334 322 318 315 313
215 223 107 83 177 196 194 176 178 184 173 181 193 193 190 189 178 176 170 168 209 288 291 274 308 308 2 7 357 1 348 346 344 345 339 337 340 339 336 334 328 322 320
165 127 103 95 96 103 138 150 178 182 168 184 201 197 193 193 186 189 178 174 174 215 246 246 258 281 316 334 333 336 326 328 336 339 340 338 337 335 334 334 333 331 328
134 129 132 151 143 141 120 120 134 157 167 183 186 190 194 190 185 183 186 192 187 192 231 228 232 257 273 300 315 319 310 320 325 329 332 333 330 326 325 327 329 327 324
160 166 170 161 164 158 155 149 155 166 171 183 185 191 210 190 185 190 184 185 192 186 227 263 250 264 253 271 306 311 310 309 309 320 321 325 323 321 321 322 325 324 322
213 193 172 169 189 182 180 172 180 178 189 197 196 192 216 194 195 194 187 194 199 194 199 244 276 280 266 256 273 291 304 304 295 309 311 314 315 317 321 321 321 319 320
212 199 174 192 204 204 196 195 193 192 201 212 205 201 214 195 204 201 193 196 199 201 192 210 255 269 278 272 290 294 291 296 299 304 303 311 313 316 319 318 318 317 315
195 215 214 216 214 214 208 201 195 199 206 220 220 213 214 207 208 205 199 200 195 193 191 204 240 258 268 274 263 283 301 303 299 302 303 308 312 317 317 315 314 312 309
207 216 222 228 219 214 214 203 195 201 209 224 229 220 218 221 219 217 207 199 192 195 198 211 236 258 260 251 250 250 276 298 290 277 295 297 303 303 306 308 308 305 303
217 200 220 219 220 232 242 229 212 205 213 220 230 230 228 231 236 241 233 217 203 198 203 208 231 238 245 240 239 242 266 294 289 274 291 288 278 281 283 281 296 302 302
237 231 227 223 228 243 262 258 241 214 216 225 229 229 238 238 237 227 238 238 231 230 220 209 219 229 229 224 216 237 242 249 258 259 273 278 271 273 274 281 293 297 298
240 236 236 233 235 253 267 267 263 225 221 231 231 227 226 235 229 224 220 227 228 234 234 224 217 224 227 220 210 218 233 260 276 261 223 263 273 270 280 282 289 295 299
250 241 231 230 234 253 265 265 267 226 232 242 238 230 227 228 240 240 223 228 243 253 258 251 246 242 242 240 227 191 207 247 277 264 217 229 263 284 283 276 284 298 304
251 254 244 239 233 240 257 266 266 226 235 250 252 245 245 243 243 243 222 217 235 243 229 249 256 255 242 235 236 216 203 220 251 259 219 207 245 295 298 276 276 292 303